ONEWEB-0115 (48042 NORAD) Tracking and Keplerian Element Data

This shows tracking and keplerian element data for the satellite.

Feedback or suggestion? Click here.




ElementValue
Catalog48042
NameONEWEB-0115
Epoch Orbit189
Epoch Day173.91668981
Epoch Year2021
RAAN322.3214
Inclination87.763
Eccentricity0.0006272
Argument of Perigee333.4458
Mean Anonmoly105.7682
Mean Motion13.72871097
Decay Rate1.5E-07
L11 48042U 21025A 21173.91668981 .00000015 00000-0 00000-0 0 9996
L22 48042 87.7630 322.3214 0006272 333.4458 105.7682 13.72871097 1897

Live tracking and technical data element details for ONEWEB-0115 (NORAD 48042). ONEWEB-0115 can be tracked NOW for your location showing map with azimuth and elevation plus other details from your city location.

Track the satellite on the map from your city or location and see movement details for azimuth, elevation, latitude, longitude, range, height, and movement on the map or in text.







IsCatalogInMostPopularTable: catalog: 48042, numindb: 40
Update: records affected: 1



GetName: 48042 ONEWEB-0115

Hit Count: updated at: Thu, 24 Jun 2021 03:09:14 GMT